Home > Time Zones > World Clock > Weather > China > Hefei > Past weeks

Flag for China Weather past 2 weeks in Hefei, China

Now
55 °F

Fog.


Feels Like: 54 °F
Forecast: 52 / 66 °F
Wind: 6 mph from North

Location: Hefei Airport


UV Index: 7 (High)

Visibility: 1 mi


Pressure: 30.07 "Hg

Humidity: 94%

Dew point: 54 °F

Location of HefeiLocation

Historic Weather in Hefei

°F

Hefei temperature yesterday

Maximum temperature yesterday: 66 °F (at 11:00 AM)
Minimum temperature yesterday: 57 °F (at 11:00 PM)
Average temperature yesterday: 62 °F

Past Weeks' High & Low Weather Summary

 TemperatureHumidityPressure
High82 °F (Apr 10, 12:00 PM)100% (Apr 8, 5:00 AM)30.27 "Hg (Apr 8, 5:00 AM)
Low46 °F (Apr 6, 5:00 AM)30% (Apr 6, 3:00 PM)29.77 "Hg (Apr 17, 4:00 AM)
Average61 °F78%29.99 "Hg
* Reported Apr 4 5:00 PM — Apr 19 5:00 PM, Hefei, Weather by CustomWeather, © 2014

Note: Actual official high and low records may vary slightly from our data, if they occured in-between our weather recording intervals... More about our weather records

Advertising

Historic Weather Conditions — Data for Previous 24 hours

 ConditionsComfort  
Time TempWeatherWind HumidityBarometerVisibility
5:00 PM
Apr 19
55 °FLight rain. Fog.8 mph100%30.04 "Hg1 mi
4:00 PM55 °FLight rain. Fog.10 mph100%30.01 "Hg1 mi
3:00 PM55 °FLight rain. Fog.10 mph100%30.01 "Hg1 mi
2:00 PM55 °FLight rain. Fog.8 mph100%30.01 "Hg1 mi
1:00 PM55 °FLight rain. Fog.10 mph100%30.01 "Hg1 mi
12:00 PM55 °FLight rain. Fog.10 mph100%30.04 "Hg2 mi
11:00 AM55 °FMostly cloudy.10 mph100%30.01 "HgN/A
10:00 AM55 °FLight rain. Mostly cloudy.13 mph100%30.01 "Hg4 mi
9:00 AM55 °FLight rain. Fog.13 mph94%30.01 "Hg3 mi
8:00 AM54 °FLight rain. Fog.10 mph100%30.01 "Hg2 mi
7:00 AM54 °FLight rain. Fog.10 mph100%29.98 "Hg2 mi
6:00 AM54 °FLight rain. Fog.13 mph100%29.95 "Hg1 mi
5:00 AM55 °FLight rain. Fog.13 mph94%29.95 "Hg2 mi
4:00 AM55 °FMostly cloudy.10 mph94%29.95 "Hg4 mi
3:00 AM55 °FSprinkles. Fog.6 mph94%29.92 "Hg3 mi
2:00 AM55 °FSprinkles. Fog.6 mph94%29.89 "Hg2 mi
1:00 AM55 °FRain showers. Fog.15 mph94%29.89 "Hg2 mi
12:00 AM55 °FThunderstorms. Fog.24 mph100%29.89 "Hg2 mi
11:00 PM
Apr 18
57 °FThunderstorms. Fog.17 mph94%29.98 "Hg1 mi
10:00 PM59 °FSprinkles. Fog.13 mph82%29.95 "Hg2 mi
9:00 PM59 °FFog.8 mph82%29.95 "Hg2 mi
8:00 PM59 °FFog.13 mph82%29.92 "Hg2 mi
7:00 PM59 °FFog.17 mph82%29.89 "Hg2 mi
6:00 PM59 °FFog.15 mph88%29.92 "Hg2 mi
Weather by CustomWeather, © 2014

See weather overview